Weather History for KFBL - June, 2012

Change the Weather History Date:

Saturday, June 16, 2012

  Actual Average Record
Temperature  
Mean Temperature 72 °F -  
Max Temperature 80 °F 76 °F 90 °F (1959)
Min Temperature 62 °F 53 °F 36 °F (1980)
Cooling Degree Days 7    
Growing Degree Days 22 (Base 50)    
Moisture  
Dew Point 62 °F    
Average Humidity 74    
Maximum Humidity 94    
Minimum Humidity 51    
Precipitation  
Precipitation 0.00 in - - ()
Sea Level Pressure  
Sea Level Pressure 29.89 in    
Wind  
Wind Speed 3 mph (WSW)    
Max Wind Speed 20 mph    
Max Gust Speed 24 mph    
Visibility 9 miles    
Events      
Averages and records for this station are not official NWS values.
T = Trace of Precipitation, MM = Missing Value Source: NWS Daily Summary

Daily Weather History Graph

Daily Weather History Graph

Search for Another Location

Airport or City:

Trip Planner

Search our weather history database for the weather conditions in past years. The results will help you decide how hot, cold, wet, or windy it might be!

Date:

Astronomy

Jun. 16, 2012 Rise Set
Actual Time 5:28 AM CDT 8:59 PM CDT
Civil Twilight 4:51 AM CDT 9:36 PM CDT
Nautical Twilight 4:03 AM CDT 10:24 PM CDT
Astronomical Twilight 3:01 AM CDT 11:27 PM CDT
Moon 3:21 AM CDT (6/16) 6:33 PM CDT (6/16)
Length of Visible Light 16h 44m
Length of Day
15h 31m
Waning Crescent, 8% of the Moon is Illuminated
Jun 16
Waning Crescent
Jun 19
New
Jun 26
First Quarter
Jul 3
Full
Jul 10
Last Quarter

Hourly Weather History & Observations

Time (CDT) Temp. Heat Index Dew Point Humidity Pressure Visibility Wind Dir Wind Speed Gust Speed Precip Events Conditions
12:14 AM 69.8 °F - 64.4 °F 83% 29.97 in 10.0 mi Calm Calm - N/A   Clear
12:34 AM 68.0 °F - 62.6 °F 83% 29.97 in 7.0 mi ENE 3.5 mph - N/A   Clear
12:54 AM 68.0 °F - 62.6 °F 83% 29.96 in 7.0 mi Calm Calm - N/A   Clear
1:14 AM 68.0 °F - 62.6 °F 83% 29.96 in 7.0 mi Calm Calm - N/A   Clear
1:34 AM 66.2 °F - 62.6 °F 88% 29.95 in 7.0 mi Calm Calm - N/A   Clear
1:53 AM 68.0 °F - 62.6 °F 83% 29.96 in 7.0 mi Calm Calm - N/A   Clear
2:14 AM 66.2 °F - 62.6 °F 88% 29.95 in 7.0 mi Calm Calm - N/A   Clear
2:34 AM 66.2 °F - 62.6 °F 88% 29.95 in 10.0 mi Calm Calm - N/A   Clear
2:54 AM 66.2 °F - 62.6 °F 88% 29.94 in 7.0 mi Calm Calm - N/A   Clear
3:14 AM 66.2 °F - 62.6 °F 88% 29.94 in 7.0 mi Calm Calm - N/A   Clear
3:34 AM 66.2 °F - 64.4 °F 94% 29.94 in 5.0 mi East 3.5 mph - N/A   Clear
3:53 AM 68.0 °F - 64.4 °F 88% 29.94 in 5.0 mi Calm Calm - N/A   Clear
4:14 AM 66.2 °F - 64.4 °F 94% 29.92 in 7.0 mi Calm Calm - N/A   Clear
4:34 AM 68.0 °F - 64.4 °F 88% 29.91 in 5.0 mi ENE 4.6 mph - N/A   Clear
5:14 AM 66.2 °F - 62.6 °F 88% 29.91 in 7.0 mi Calm Calm - N/A   Scattered Clouds
5:34 AM 66.2 °F - 62.6 °F 88% 29.90 in 7.0 mi Calm Calm - N/A   Clear
5:53 AM 66.2 °F - 62.6 °F 88% 29.90 in 5.0 mi Calm Calm - N/A   Scattered Clouds
6:14 AM 66.2 °F - 64.4 °F 94% 29.91 in 5.0 mi Calm Calm - N/A   Mostly Cloudy
6:34 AM 66.2 °F - 64.4 °F 94% 29.91 in 3.0 mi Calm Calm - N/A   Overcast
6:53 AM 66.2 °F - 64.4 °F 94% 29.90 in 5.0 mi Calm Calm - N/A   Mostly Cloudy
7:14 AM 68.0 °F - 64.4 °F 88% 29.90 in 7.0 mi Calm Calm - N/A   Overcast
7:34 AM 69.8 °F - 64.4 °F 83% 29.90 in 7.0 mi Calm Calm - N/A   Overcast
7:54 AM 69.8 °F - 64.4 °F 83% 29.91 in 10.0 mi SSE 3.5 mph - N/A   Overcast
8:14 AM 69.8 °F - 64.4 °F 83% 29.91 in 10.0 mi SE 4.6 mph - N/A   Mostly Cloudy
8:34 AM 69.8 °F - 62.6 °F 78% 29.91 in 10.0 mi Calm Calm - N/A   Overcast
8:54 AM 69.8 °F - 62.6 °F 78% 29.91 in 10.0 mi South 3.5 mph - N/A   Overcast
9:13 AM 69.8 °F - 62.6 °F 78% 29.91 in 10.0 mi SSE 5.8 mph - N/A   Mostly Cloudy
9:34 AM 71.6 °F - 64.4 °F 78% 29.91 in 10.0 mi Calm Calm - N/A   Mostly Cloudy
9:53 AM 71.6 °F - 62.6 °F 73% 29.91 in 10.0 mi South 4.6 mph - N/A   Overcast
10:14 AM 71.6 °F - 64.4 °F 78% 29.91 in 10.0 mi WSW 3.5 mph - N/A   Overcast
10:34 AM 71.6 °F - 64.4 °F 78% 29.91 in 10.0 mi West 4.6 mph - N/A   Overcast
10:53 AM 71.6 °F - 62.6 °F 73% 29.90 in 10.0 mi West 4.6 mph - N/A   Overcast
11:14 AM 71.6 °F - 62.6 °F 73% 29.90 in 10.0 mi West 3.5 mph - N/A   Overcast
11:34 AM 71.6 °F - 64.4 °F 78% 29.90 in 10.0 mi WNW 4.6 mph - N/A   Overcast
11:53 AM 71.6 °F - 64.4 °F 78% 29.89 in 10.0 mi WSW 5.8 mph - N/A   Overcast
12:14 PM 73.4 °F - 64.4 °F 73% 29.89 in 10.0 mi West 4.6 mph - N/A   Mostly Cloudy
12:34 PM 75.2 °F - 64.4 °F 69% 29.89 in 10.0 mi WSW 5.8 mph - N/A   Scattered Clouds
12:53 PM 77.0 °F - 64.4 °F 65% 29.88 in 10.0 mi West 4.6 mph - N/A   Scattered Clouds
1:14 PM 78.8 °F - 64.4 °F 61% 29.87 in 10.0 mi West 6.9 mph - N/A   Scattered Clouds
1:34 PM 78.8 °F - 64.4 °F 61% 29.87 in 10.0 mi WSW 9.2 mph - N/A   Clear
1:53 PM 78.8 °F - 64.4 °F 61% 29.87 in 10.0 mi WSW 10.4 mph - N/A   Scattered Clouds
2:14 PM 78.8 °F - 64.4 °F 61% 29.86 in 10.0 mi WSW 9.2 mph - N/A   Scattered Clouds
2:34 PM 80.6 °F 82.3 °F 64.4 °F 58% 29.85 in 10.0 mi WSW 8.1 mph - N/A   Scattered Clouds
2:54 PM 80.6 °F 82.3 °F 64.4 °F 58% 29.84 in 10.0 mi WSW 8.1 mph - N/A   Scattered Clouds
3:14 PM 80.6 °F 81.8 °F 62.6 °F 54% 29.84 in 10.0 mi WSW 13.8 mph 17.3 mph N/A   Scattered Clouds
3:34 PM 78.8 °F - 64.4 °F 61% 29.84 in 10.0 mi WSW 13.8 mph 18.4 mph N/A   Scattered Clouds
3:53 PM 80.6 °F 82.3 °F 64.4 °F 58% 29.84 in 10.0 mi WSW 13.8 mph 18.4 mph N/A   Scattered Clouds
4:14 PM 80.6 °F 82.3 °F 64.4 °F 58% 29.82 in 10.0 mi WSW 9.2 mph - N/A   Clear
4:34 PM 78.8 °F - 62.6 °F 57% 29.82 in 10.0 mi West 10.4 mph - N/A   Scattered Clouds
4:54 PM 80.6 °F 81.5 °F 60.8 °F 51% 29.82 in 10.0 mi WSW 11.5 mph 17.3 mph N/A   Clear
5:14 PM 75.2 °F - 64.4 °F 69% 29.82 in 10.0 mi West 9.2 mph - N/A   Scattered Clouds
5:33 PM 77.0 °F - 64.4 °F 65% 29.82 in 10.0 mi West 8.1 mph - N/A   Scattered Clouds
5:54 PM 78.8 °F - 64.4 °F 61% 29.83 in 10.0 mi West 19.6 mph - N/A   Scattered Clouds
6:14 PM 77.0 °F - 62.6 °F 61% 29.83 in 10.0 mi West 16.1 mph 21.9 mph N/A   Scattered Clouds
6:33 PM 75.2 °F - 62.6 °F 65% 29.84 in 10.0 mi West 15.0 mph - N/A   Scattered Clouds
6:54 PM 75.2 °F - 60.8 °F 61% 29.85 in 10.0 mi West 15.0 mph 19.6 mph N/A   Scattered Clouds
7:13 PM 73.4 °F - 57.2 °F 57% 29.86 in 10.0 mi West 15.0 mph 24.2 mph N/A   Clear
7:34 PM 73.4 °F - 57.2 °F 57% 29.86 in 10.0 mi WNW 9.2 mph 16.1 mph N/A   Clear
7:54 PM 73.4 °F - 57.2 °F 57% 29.86 in 10.0 mi West 8.1 mph - N/A   Clear
8:14 PM 71.6 °F - 59.0 °F 64% 29.86 in 10.0 mi West 4.6 mph - N/A   Clear
8:34 PM 71.6 °F - 57.2 °F 60% 29.86 in 10.0 mi West 3.5 mph - N/A   Clear
8:53 PM 69.8 °F - 57.2 °F 64% 29.86 in 10.0 mi Calm Calm - N/A   Clear
9:14 PM 68.0 °F - 59.0 °F 73% 29.86 in 10.0 mi Calm Calm - N/A   Clear
9:34 PM 66.2 °F - 59.0 °F 78% 29.87 in 10.0 mi SSW 3.5 mph - N/A   Clear
9:54 PM 64.4 °F - 57.2 °F 77% 29.88 in 10.0 mi WSW 3.5 mph - N/A   Clear
10:14 PM 66.2 °F - 57.2 °F 73% 29.88 in 10.0 mi West 5.8 mph - N/A   Clear
10:33 PM 66.2 °F - 55.4 °F 68% 29.89 in 10.0 mi West 4.6 mph - N/A   Clear
10:54 PM 66.2 °F - 53.6 °F 64% 29.89 in 10.0 mi WSW 4.6 mph - N/A   Clear
11:34 PM 62.6 °F - 51.8 °F 68% 29.90 in 7.0 mi Calm Calm - N/A   Clear